Precipitable_Water
0.28 0.21 0.19 0.18 0.20 0.19 0.17 0.18 0.17 0.18 0.18 0.18 0.17 0.16 0.15 0.15 0.15 0.17 0.17 0.18 0.17 0.16 0.15 0.15 0.15 0.16 0.15 0.16 0.15 0.15 0.35 0.34 0.40 0.36 0.41 0.49 0.55 0.59 0.63 0.74 0.84 0.95 0.99 1.12 1.25 1.34 1.31 1.28 1.33 1.36 1.42 1.44 1.43 1.47 1.49 1.59 1.71 1.66 1.61 1.51 1.38 1.38 1.38 1.36 1.25 1.15 1.07 1.05 1.13 1.21 1.19 1.11 1.23 1.29 1.34 1.38 1.44 1.44 1.44 1.50 1.55 1.57 1.64 1.60 1.55 1.56
0.25 0.18 0.18 0.21 0.22 0.21 0.18 0.19 0.19 0.18 0.19 0.18 0.17 0.15 0.14 0.14 0.13 0.15 0.16 0.17 0.18 0.16 0.15 0.15 0.15 0.15 0.16 0.17 0.16 0.18 0.29 0.32 0.34 0.40 0.41 0.49 0.56 0.60 0.63 0.71 0.84 0.97 1.05 1.12 1.14 1.26 1.26 1.22 1.27 1.33 1.38 1.38 1.29 1.34 1.42 1.58 1.71 1.63 1.64 1.49 1.42 1.42 1.35 1.29 1.18 1.09 1.08 1.13 1.14 1.19 1.21 1.23 1.28 1.28 1.30 1.30 1.37 1.39 1.44 1.53 1.52 1.55 1.55 1.56 1.45 1.39
0.18 0.15 0.18 0.22 0.23 0.23 0.20 0.18 0.18 0.17 0.17 0.19 0.18 0.17 0.15 0.15 0.16 0.16 0.16 0.18 0.17 0.16 0.15 0.16 0.15 0.16 0.16 0.17 0.17 0.20 0.27 0.33 0.35 0.34 0.43 0.48 0.56 0.63 0.69 0.76 0.82 0.88 0.93 1.02 1.10 1.14 1.19 1.18 1.22 1.33 1.36 1.34 1.30 1.28 1.36 1.57 1.61 1.61 1.55 1.49 1.44 1.40 1.30 1.24 1.21 1.12 1.15 1.22 1.29 1.32 1.30 1.31 1.32 1.41 1.40 1.36 1.38 1.43 1.45 1.43 1.45 1.49 1.52 1.51 1.45 1.43
0.16 0.16 0.19 0.21 0.23 0.20 0.19 0.17 0.17 0.16 0.17 0.17 0.17 0.16 0.15 0.17 0.16 0.14 0.16 0.16 0.16 0.15 0.15 0.15 0.15 0.16 0.18 0.18 0.26 0.28 0.30 0.37 0.43 0.45 0.48 0.49 0.51 0.61 0.67 0.69 0.73 0.82 0.87 0.91 0.95 1.02 1.12 1.16 1.21 1.23 1.27 1.32 1.33 1.31 1.35 1.48 1.56 1.58 1.55 1.51 1.45 1.37 1.34 1.30 1.25 1.21 1.30 1.32 1.36 1.42 1.40 1.40 1.38 1.31 1.38 1.41 1.43 1.45 1.42 1.38 1.46 1.51 1.53 1.48 1.41 1.43
0.17 0.19 0.21 0.20 0.20 0.18 0.16 0.16 0.15 0.15 0.15 0.17 0.17 0.16 0.16 0.16 0.17 0.16 0.16 0.15 0.17 0.16 0.16 0.16 0.16 0.17 0.18 0.18 0.33 0.43 0.45 0.43 0.53 0.64 0.66 0.68 0.63 0.65 0.72 0.75 0.78 0.78 0.85 0.91 0.96 0.97 1.02 1.10 1.13 1.17 1.22 1.27 1.27 1.30 1.32 1.38 1.45 1.50 1.56 1.54 1.47 1.42 1.38 1.32 1.27 1.29 1.35 1.36 1.37 1.39 1.41 1.42 1.39 1.39 1.36 1.34 1.34 1.37 1.36 1.34 1.39 1.44 1.46 1.42 1.34 1.35
0.21 0.23 0.22 0.19 0.18 0.17 0.16 0.15 0.15 0.14 0.14 0.15 0.17 0.17 0.17 0.17 0.17 0.17 0.17 0.15 0.14 0.15 0.16 0.16 0.14 0.14 0.17 0.25 0.31 0.43 0.48 0.47 0.60 0.63 0.64 0.62 0.63 0.66 0.68 0.74 0.82 0.85 0.89 0.88 0.87 0.88 0.93 1.01 1.10 1.16 1.20 1.23 1.28 1.28 1.33 1.37 1.43 1.56 1.56 1.56 1.51 1.46 1.41 1.34 1.34 1.36 1.35 1.34 1.32 1.30 1.26 1.22 1.22 1.19 1.21 1.18 1.19 1.24 1.25 1.24 1.32 1.35 1.36 1.35 1.38 1.38
0.23 0.25 0.22 0.19 0.18 0.17 0.16 0.15 0.16 0.16 0.14 0.14 0.14 0.18 0.18 0.18 0.18 0.17 0.16 0.15 0.12 0.12 0.16 0.19 0.14 0.13 0.17 0.23 0.29 0.41 0.44 0.47 0.57 0.60 0.64 0.65 0.64 0.66 0.67 0.71 0.75 0.80 0.85 0.91 0.95 0.96 0.98 1.04 1.09 1.15 1.22 1.31 1.34 1.38 1.47 1.51 1.58 1.56 1.57 1.55 1.52 1.44 1.40 1.40 1.39 1.40 1.37 1.35 1.36 1.33 1.28 1.26 1.22 1.17 1.22 1.29 1.32 1.29 1.33 1.33 1.30 1.35 1.41 1.42 1.41 1.41
0.24 0.25 0.22 0.20 0.18 0.16 0.15 0.14 0.16 0.16 0.14 0.13 0.16 0.18 0.19 0.18 0.17 0.17 0.17 0.15 0.15 0.17 0.19 0.20 0.16 0.13 0.14 0.22 0.28 0.35 0.40 0.48 0.51 0.55 0.57 0.58 0.59 0.59 0.61 0.65 0.69 0.74 0.77 0.84 0.91 0.98 1.04 1.09 1.13 1.17 1.29 1.38 1.43 1.50 1.57 1.64 1.63 1.60 1.56 1.54 1.48 1.44 1.41 1.42 1.42 1.43 1.43 1.36 1.37 1.34 1.29 1.27 1.24 1.20 1.17 1.25 1.29 1.36 1.36 1.33 1.34 1.34 1.35 1.34 1.35 1.19
0.23 0.24 0.23 0.19 0.18 0.16 0.14 0.14 0.16 0.16 0.14 0.14 0.16 0.18 0.19 0.19 0.18 0.18 0.17 0.17 0.17 0.16 0.16 0.17 0.17 0.13 0.12 0.18 0.35 0.37 0.34 0.40 0.45 0.49 0.53 0.56 0.59 0.59 0.57 0.59 0.64 0.69 0.76 0.87 0.92 0.97 1.02 1.07 1.18 1.29 1.36 1.45 1.50 1.56 1.53 1.64 1.59 1.61 1.64 1.57 1.51 1.46 1.46 1.44 1.46 1.44 1.44 1.43 1.40 1.34 1.29 1.25 1.28 1.26 1.27 1.32 1.35 1.30 1.31 1.28 1.29 1.27 1.25 1.25 1.21 1.16
0.22 0.25 0.24 0.22 0.18 0.15 0.16 0.16 0.16 0.16 0.14 0.16 0.18 0.18 0.19 0.20 0.19 0.18 0.17 0.18 0.20 0.15 0.14 0.16 0.17 0.13 0.13 0.17 0.33 0.39 0.31 0.33 0.39 0.44 0.48 0.52 0.53 0.55 0.57 0.63 0.68 0.75 0.82 0.90 0.96 1.00 1.05 1.12 1.25 1.33 1.37 1.44 1.47 1.47 1.57 1.62 1.58 1.57 1.57 1.58 1.49 1.46 1.48 1.49 1.47 1.45 1.44 1.44 1.41 1.33 1.29 1.24 1.24 1.28 1.29 1.30 1.27 1.26 1.28 1.24 1.23 1.22 1.20 1.16 1.14 1.15
0.23 0.25 0.28 0.24 0.19 0.17 0.17 0.16 0.16 0.17 0.17 0.19 0.17 0.17 0.18 0.19 0.18 0.18 0.19 0.19 0.19 0.14 0.13 0.16 0.17 0.15 0.13 0.16 0.29 0.31 0.34 0.35 0.40 0.43 0.49 0.55 0.57 0.61 0.66 0.67 0.71 0.76 0.82 0.86 0.93 1.01 1.10 1.21 1.29 1.35 1.38 1.42 1.47 1.47 1.54 1.48 1.52 1.61 1.53 1.52 1.52 1.53 1.53 1.52 1.48 1.45 1.42 1.43 1.39 1.33 1.30 1.25 1.24 1.26 1.26 1.24 1.24 1.24 1.24 1.21 1.20 1.19 1.16 1.14 1.10 1.08
0.24 0.22 0.24 0.24 0.23 0.20 0.19 0.17 0.17 0.18 0.19 0.18 0.17 0.17 0.16 0.16 0.18 0.18 0.18 0.20 0.15 0.13 0.17 0.17 0.17 0.17 0.13 0.15 0.22 0.31 0.38 0.43 0.37 0.38 0.43 0.50 0.54 0.60 0.65 0.70 0.77 0.83 0.86 0.89 0.93 1.00 1.10 1.16 1.26 1.33 1.34 1.40 1.38 1.42 1.42 1.39 1.43 1.40 1.49 1.50 1.52 1.54 1.53 1.52 1.51 1.49 1.45 1.43 1.40 1.37 1.33 1.28 1.27 1.25 1.24 1.22 1.21 1.23 1.20 1.18 1.16 1.13 1.07 1.03 1.01 1.00
0.21 0.21 0.23 0.24 0.25 0.21 0.18 0.17 0.16 0.18 0.19 0.18 0.18 0.17 0.13 0.13 0.15 0.14 0.16 0.14 0.13 0.13 0.17 0.19 0.18 0.17 0.15 0.16 0.17 0.33 0.43 0.50 0.44 0.40 0.43 0.49 0.56 0.62 0.67 0.72 0.80 0.88 0.92 0.91 0.93 0.99 1.05 1.10 1.16 1.22 1.28 1.32 1.32 1.30 1.33 1.35 1.35 1.39 1.51 1.49 1.45 1.44 1.49 1.49 1.53 1.49 1.46 1.42 1.38 1.35 1.32 1.29 1.29 1.27 1.26 1.22 1.21 1.22 1.15 1.11 1.07 1.01 0.94 0.93 0.91 0.94
0.20 0.23 0.23 0.24 0.24 0.23 0.20 0.16 0.16 0.16 0.18 0.17 0.16 0.15 0.13 0.13 0.13 0.12 0.13 0.14 0.14 0.16 0.19 0.18 0.19 0.15 0.17 0.17 0.18 0.24 0.35 0.42 0.45 0.46 0.48 0.50 0.53 0.60 0.68 0.78 0.82 0.88 0.94 0.94 0.95 0.98 1.04 1.08 1.18 1.25 1.27 1.32 1.31 1.29 1.28 1.33 1.33 1.31 1.39 1.41 1.43 1.43 1.48 1.49 1.49 1.47 1.42 1.38 1.36 1.34 1.32 1.29 1.26 1.21 1.21 1.22 1.18 1.16 1.12 1.06 0.98 0.93 0.91 0.90 0.89 0.89
0.17 0.18 0.20 0.22 0.19 0.23 0.20 0.18 0.18 0.17 0.18 0.17 0.18 0.17 0.15 0.16 0.14 0.12 0.13 0.12 0.13 0.15 0.17 0.19 0.15 0.13 0.13 0.17 0.20 0.31 0.37 0.45 0.52 0.61 0.62 0.58 0.60 0.66 0.75 0.81 0.84 0.88 0.96 0.98 0.98 1.01 1.06 1.13 1.21 1.25 1.29 1.32 1.31 1.27 1.25 1.28 1.31 1.27 1.32 1.34 1.37 1.41 1.45 1.45 1.44 1.42 1.37 1.33 1.31 1.30 1.28 1.25 1.22 1.20 1.21 1.19 1.15 1.11 1.03 0.98 0.94 0.92 0.93 0.91 0.90 0.92
0.19 0.19 0.21 0.24 0.24 0.24 0.20 0.21 0.23 0.20 0.18 0.18 0.19 0.19 0.16 0.16 0.18 0.14 0.15 0.15 0.16 0.16 0.15 0.16 0.15 0.17 0.16 0.27 0.27 0.34 0.50 0.52 0.57 0.72 0.71 0.69 0.73 0.74 0.76 0.77 0.80 0.89 0.93 0.96 0.98 1.04 1.13 1.21 1.27 1.30 1.30 1.30 1.26 1.23 1.21 1.25 1.33 1.30 1.31 1.37 1.40 1.39 1.41 1.43 1.39 1.35 1.32 1.28 1.27 1.26 1.22 1.21 1.22 1.22 1.21 1.16 1.12 1.06 1.01 0.97 0.95 0.93 0.94 0.92 0.92 0.94
0.20 0.19 0.24 0.24 0.25 0.23 0.22 0.22 0.22 0.22 0.15 0.17 0.19 0.16 0.16 0.20 0.20 0.17 0.16 0.18 0.20 0.18 0.15 0.18 0.16 0.19 0.30 0.29 0.35 0.33 0.46 0.51 0.55 0.57 0.67 0.70 0.72 0.72 0.73 0.77 0.84 0.87 0.87 0.88 0.94 1.05 1.15 1.20 1.24 1.27 1.26 1.26 1.20 1.20 1.22 1.28 1.35 1.34 1.32 1.36 1.39 1.40 1.40 1.39 1.37 1.32 1.30 1.27 1.23 1.20 1.20 1.21 1.20 1.19 1.14 1.08 1.02 0.99 0.98 0.97 0.96 0.94 0.93 0.94 0.95 0.91
0.20 0.21 0.24 0.23 0.21 0.23 0.22 0.23 0.23 0.22 0.21 0.18 0.15 0.16 0.20 0.22 0.22 0.17 0.14 0.15 0.16 0.15 0.16 0.17 0.15 0.21 0.20 0.23 0.36 0.33 0.38 0.51 0.57 0.60 0.65 0.68 0.71 0.69 0.73 0.77 0.80 0.82 0.86 0.94 1.04 1.09 1.09 1.12 1.14 1.20 1.22 1.17 1.17 1.22 1.25 1.31 1.37 1.37 1.34 1.36 1.34 1.33 1.31 1.33 1.33 1.31 1.28 1.24 1.22 1.20 1.19 1.18 1.17 1.14 1.10 1.06 0.98 0.95 0.95 0.95 0.94 0.93 0.92 0.92 0.92 0.88
0.26 0.21 0.22 0.23 0.24 0.23 0.23 0.24 0.22 0.23 0.23 0.18 0.15 0.21 0.18 0.16 0.14 0.18 0.17 0.13 0.12 0.14 0.16 0.16 0.17 0.18 0.20 0.23 0.32 0.32 0.35 0.47 0.58 0.65 0.67 0.68 0.69 0.67 0.72 0.76 0.81 0.88 0.93 1.00 1.02 1.05 1.07 1.09 1.11 1.16 1.14 1.18 1.21 1.30 1.35 1.34 1.35 1.35 1.36 1.38 1.36 1.29 1.28 1.28 1.28 1.27 1.25 1.24 1.22 1.20 1.17 1.15 1.12 1.10 1.06 1.01 0.97 0.94 0.92 0.91 0.91 0.93 0.95 0.93 0.89 0.83
0.27 0.22 0.21 0.25 0.24 0.22 0.21 0.20 0.16 0.18 0.21 0.22 0.21 0.20 0.21 0.18 0.16 0.17 0.17 0.19 0.15 0.14 0.15 0.15 0.16 0.15 0.21 0.28 0.28 0.37 0.39 0.46 0.59 0.64 0.59 0.62 0.64 0.65 0.68 0.74 0.80 0.87 0.92 0.95 1.00 1.03 1.06 1.10 1.14 1.17 1.12 1.12 1.18 1.28 1.35 1.33 1.34 1.33 1.36 1.37 1.34 1.30 1.27 1.24 1.21 1.21 1.19 1.21 1.22 1.19 1.16 1.12 1.08 1.04 0.99 0.96 0.93 0.91 0.89 0.90 0.91 0.92 0.91 0.88 0.87 0.84
0.25 0.29 0.19 0.22 0.25 0.23 0.17 0.17 0.16 0.18 0.17 0.17 0.16 0.16 0.17 0.16 0.20 0.20 0.21 0.18 0.17 0.14 0.14 0.15 0.14 0.15 0.23 0.32 0.27 0.30 0.43 0.48 0.52 0.57 0.57 0.62 0.65 0.66 0.67 0.68 0.76 0.83 0.89 0.94 0.96 0.99 1.03 1.07 1.10 1.10 1.13 1.20 1.26 1.33 1.34 1.30 1.29 1.32 1.34 1.32 1.30 1.24 1.22 1.19 1.20 1.20 1.20 1.20 1.17 1.13 1.07 1.03 1.00 0.97 0.96 0.94 0.93 0.92 0.92 0.92 0.92 0.90 0.88 0.88 0.84 0.83
0.27 0.26 0.22 0.22 0.22 0.21 0.19 0.21 0.21 0.21 0.19 0.17 0.15 0.14 0.16 0.14 0.16 0.16 0.16 0.19 0.19 0.18 0.15 0.13 0.14 0.19 0.31 0.42 0.42 0.30 0.40 0.50 0.57 0.56 0.57 0.61 0.66 0.68 0.70 0.73 0.75 0.79 0.86 0.91 0.96 0.99 1.03 1.06 1.07 1.09 1.18 1.23 1.26 1.31 1.29 1.27 1.26 1.28 1.30 1.32 1.30 1.26 1.22 1.20 1.21 1.21 1.18 1.16 1.12 1.07 1.03 1.00 0.98 0.96 0.95 0.93 0.93 0.92 0.93 0.93 0.92 0.90 0.87 0.85 0.84 0.83
0.31 0.30 0.27 0.23 0.21 0.21 0.23 0.24 0.24 0.23 0.22 0.18 0.16 0.15 0.17 0.16 0.17 0.17 0.15 0.16 0.18 0.19 0.21 0.19 0.14 0.17 0.42 0.48 0.43 0.37 0.39 0.48 0.57 0.57 0.59 0.65 0.67 0.69 0.73 0.76 0.79 0.81 0.83 0.91 0.96 1.01 1.02 1.03 1.05 1.08 1.11 1.17 1.22 1.23 1.21 1.20 1.19 1.25 1.30 1.30 1.27 1.22 1.21 1.22 1.21 1.19 1.16 1.12 1.09 1.05 1.03 1.01 0.98 0.97 0.95 0.94 0.94 0.92 0.93 0.94 0.92 0.89 0.86 0.86 0.87 0.90
0.40 0.31 0.26 0.27 0.27 0.27 0.26 0.25 0.23 0.22 0.21 0.19 0.17 0.17 0.17 0.15 0.17 0.17 0.17 0.20 0.17 0.19 0.18 0.21 0.16 0.24 0.44 0.54 0.47 0.43 0.42 0.46 0.59 0.59 0.59 0.65 0.70 0.73 0.75 0.77 0.78 0.82 0.89 0.96 1.03 1.03 1.02 1.05 1.09 1.09 1.08 1.12 1.17 1.16 1.14 1.15 1.18 1.24 1.27 1.26 1.23 1.20 1.20 1.20 1.18 1.15 1.13 1.10 1.07 1.06 1.04 1.01 1.00 0.98 0.96 0.94 0.93 0.92 0.93 0.92 0.92 0.94 0.91 0.90 0.94 0.95
0.31 0.31 0.28 0.23 0.23 0.24 0.24 0.24 0.21 0.21 0.21 0.18 0.16 0.16 0.17 0.17 0.18 0.19 0.19 0.20 0.17 0.19 0.20 0.20 0.16 0.25 0.48 0.58 0.52 0.51 0.49 0.47 0.51 0.62 0.64 0.69 0.76 0.78 0.79 0.79 0.81 0.85 0.90 0.95 0.97 0.97 1.01 1.03 1.01 1.00 1.04 1.09 1.11 1.14 1.16 1.16 1.17 1.22 1.22 1.21 1.18 1.18 1.18 1.17 1.15 1.12 1.10 1.08 1.05 1.04 1.04 1.04 1.03 1.00 0.98 0.96 0.96 0.94 0.94 0.94 0.93 0.92 0.90 0.93 0.94 0.96
0.29 0.30 0.28 0.21 0.18 0.15 0.14 0.14 0.14 0.16 0.17 0.19 0.18 0.17 0.18 0.17 0.16 0.16 0.15 0.17 0.16 0.19 0.21 0.20 0.24 0.36 0.49 0.56 0.55 0.58 0.54 0.53 0.53 0.57 0.65 0.66 0.71 0.77 0.80 0.80 0.82 0.86 0.90 0.92 0.95 0.96 0.97 0.98 0.99 1.01 1.05 1.10 1.13 1.15 1.17 1.16 1.18 1.20 1.19 1.17 1.17 1.16 1.15 1.13 1.13 1.10 1.07 1.06 1.03 1.02 1.02 1.03 1.03 1.02 1.00 0.99 0.98 0.96 0.95 0.93 0.91 0.91 0.94 0.95 0.93 0.92
0.30 0.32 0.29 0.25 0.21 0.19 0.19 0.19 0.20 0.20 0.18 0.17 0.18 0.18 0.17 0.17 0.17 0.16 0.16 0.16 0.15 0.20 0.19 0.24 0.29 0.39 0.42 0.50 0.49 0.54 0.54 0.52 0.53 0.56 0.62 0.69 0.74 0.79 0.81 0.85 0.85 0.86 0.89 0.92 0.95 0.98 1.00 1.01 1.00 1.04 1.09 1.12 1.13 1.15 1.12 1.10 1.13 1.16 1.16 1.14 1.15 1.15 1.14 1.11 1.09 1.07 1.05 1.04 1.03 1.02 1.02 1.03 1.03 1.02 1.01 1.01 0.99 0.99 0.99 0.97 0.95 0.96 0.95 0.96 0.95 0.93
0.31 0.28 0.28 0.27 0.25 0.25 0.24 0.23 0.22 0.20 0.18 0.19 0.20 0.19 0.18 0.17 0.18 0.18 0.15 0.15 0.18 0.20 0.18 0.32 0.32 0.33 0.44 0.56 0.56 0.56 0.57 0.59 0.60 0.61 0.65 0.72 0.77 0.81 0.86 0.89 0.91 0.92 0.96 1.00 0.99 0.97 0.96 0.99 1.01 1.06 1.12 1.12 1.13 1.13 1.11 1.10 1.11 1.10 1.08 1.08 1.11 1.15 1.17 1.14 1.08 1.05 1.03 1.03 1.03 1.02 1.01 1.02 1.02 1.03 1.03 1.02 1.01 1.01 0.99 0.98 0.98 0.98 0.97 0.98 0.95 0.93
0.29 0.27 0.29 0.28 0.26 0.26 0.25 0.24 0.24 0.22 0.21 0.21 0.20 0.19 0.17 0.17 0.18 0.17 0.18 0.21 0.20 0.18 0.19 0.34 0.36 0.34 0.42 0.55 0.68 0.67 0.63 0.61 0.62 0.67 0.73 0.78 0.84 0.87 0.89 0.90 0.90 0.91 0.94 0.95 0.96 0.97 0.97 0.98 0.99 1.02 1.07 1.11 1.10 1.05 1.05 1.07 1.09 1.08 1.09 1.11 1.11 1.11 1.11 1.10 1.04 1.03 1.04 1.04 1.02 1.01 1.01 1.01 1.02 1.03 1.02 1.00 1.00 0.98 0.97 0.98 0.98 0.97 0.96 0.95 0.93 0.91
0.30 0.28 0.29 0.28 0.26 0.27 0.26 0.25 0.26 0.24 0.22 0.22 0.21 0.20 0.19 0.18 0.18 0.19 0.19 0.21 0.24 0.23 0.28 0.37 0.40 0.37 0.44 0.50 0.61 0.73 0.77 0.75 0.77 0.82 0.85 0.83 0.84 0.87 0.90 0.92 0.92 0.93 0.92 0.92 0.94 0.96 0.98 0.99 1.00 1.03 1.07 1.07 1.06 1.06 1.08 1.10 1.10 1.09 1.08 1.09 1.13 1.14 1.11 1.07 1.06 1.07 1.06 1.04 1.02 1.02 1.00 0.99 0.99 1.00 1.01 1.00 0.98 0.97 0.98 0.97 0.96 0.95 0.93 0.92 0.91 0.88
0.29 0.27 0.29 0.29 0.26 0.26 0.28 0.27 0.26 0.25 0.23 0.20 0.21 0.21 0.21 0.20 0.20 0.19 0.20 0.21 0.23 0.32 0.27 0.27 0.30 0.35 0.50 0.55 0.61 0.75 0.79 0.83 0.84 0.83 0.85 0.88 0.90 0.90 0.90 0.90 0.91 0.92 0.94 0.96 0.98 0.98 0.99 1.01 1.01 1.01 1.00 1.00 1.01 1.06 1.09 1.11 1.11 1.10 1.10 1.10 1.10 1.06 1.06 1.09 1.09 1.09 1.07 1.06 1.05 1.03 1.00 0.97 0.96 0.98 0.97 0.96 0.96 0.97 0.96 0.95 0.94 0.92 0.91 0.89 0.87 0.83
0.29 0.28 0.30 0.28 0.24 0.24 0.26 0.26 0.24 0.25 0.23 0.21 0.20 0.20 0.21 0.20 0.19 0.20 0.20 0.22 0.22 0.22 0.27 0.26 0.28 0.33 0.52 0.62 0.60 0.65 0.66 0.68 0.71 0.79 0.84 0.90 0.93 0.92 0.91 0.91 0.92 0.93 0.93 0.95 0.97 0.97 0.95 1.00 1.03 1.03 1.00 1.00 1.03 1.05 1.07 1.09 1.08 1.08 1.05 1.06 1.06 1.06 1.09 1.08 1.06 1.02 1.02 1.02 0.98 0.97 0.96 0.95 0.95 0.95 0.94 0.93 0.93 0.93 0.93 0.92 0.89 0.87 0.86 0.84 0.81 0.79
0.28 0.28 0.26 0.25 0.23 0.23 0.26 0.26 0.26 0.26 0.23 0.20 0.20 0.21 0.21 0.21 0.23 0.23 0.22 0.24 0.23 0.25 0.24 0.21 0.26 0.37 0.51 0.57 0.55 0.59 0.60 0.64 0.68 0.74 0.80 0.86 0.90 0.90 0.89 0.92 0.94 0.97 0.98 0.97 0.95 0.95 0.96 0.97 0.98 0.98 0.97 0.99 1.02 1.05 1.07 1.09 1.08 1.04 1.04 1.06 1.06 1.06 1.06 1.07 1.05 1.02 0.96 0.94 0.93 0.93 0.94 0.95 0.95 0.94 0.93 0.92 0.92 0.92 0.90 0.88 0.86 0.84 0.81 0.78 0.77 0.75
0.29 0.28 0.27 0.29 0.23 0.23 0.25 0.26 0.26 0.25 0.18 0.18 0.34 0.39 0.32 0.24 0.24 0.21 0.20 0.22 0.25 0.25 0.27 0.30 0.38 0.49 0.52 0.51 0.47 0.54 0.58 0.62 0.64 0.74 0.80 0.80 0.80 0.82 0.85 0.88 0.90 0.93 0.97 1.00 0.99 0.98 0.99 0.99 0.98 0.98 0.98 1.00 1.03 1.04 1.06 1.08 1.10 1.09 1.10 1.09 1.06 1.05 1.04 1.01 1.00 0.97 0.94 0.93 0.92 0.93 0.93 0.94 0.93 0.91 0.90 0.91 0.90 0.89 0.87 0.84 0.81 0.79 0.77 0.74 0.71 0.67
0.27 0.28 0.27 0.29 0.25 0.23 0.25 0.26 0.22 0.19 0.21 0.40 0.42 0.40 0.37 0.32 0.29 0.27 0.24 0.23 0.24 0.26 0.30 0.33 0.46 0.51 0.54 0.54 0.53 0.57 0.64 0.72 0.79 0.79 0.82 0.80 0.74 0.70 0.71 0.77 0.82 0.84 0.86 0.89 0.90 0.90 0.90 0.91 0.93 0.95 0.97 0.99 1.01 1.02 1.03 1.05 1.08 1.09 1.12 1.09 1.05 1.06 1.02 1.00 0.98 0.94 0.92 0.90 0.89 0.91 0.91 0.90 0.89 0.88 0.88 0.88 0.87 0.85 0.83 0.81 0.79 0.76 0.73 0.70 0.66 0.61
0.27 0.28 0.29 0.26 0.26 0.27 0.24 0.23 0.18 0.20 0.32 0.41 0.37 0.38 0.36 0.32 0.31 0.26 0.24 0.26 0.26 0.26 0.31 0.35 0.42 0.54 0.56 0.59 0.60 0.64 0.65 0.72 0.78 0.81 0.80 0.79 0.75 0.68 0.68 0.72 0.81 0.83 0.82 0.84 0.83 0.85 0.86 0.87 0.90 0.92 0.95 1.01 1.02 1.04 1.07 1.04 1.06 1.08 1.10 1.11 1.07 1.04 1.00 0.98 0.94 0.91 0.90 0.88 0.87 0.88 0.90 0.89 0.88 0.87 0.87 0.86 0.84 0.82 0.80 0.78 0.74 0.69 0.68 0.65 0.63 0.60
0.29 0.32 0.29 0.25 0.27 0.23 0.24 0.24 0.22 0.31 0.27 0.30 0.31 0.33 0.36 0.31 0.30 0.27 0.23 0.24 0.28 0.29 0.31 0.40 0.46 0.53 0.58 0.60 0.61 0.63 0.65 0.66 0.65 0.71 0.80 0.78 0.75 0.74 0.74 0.77 0.83 0.87 0.88 0.89 0.89 0.87 0.91 0.94 0.95 0.98 1.01 1.02 1.04 1.06 1.06 1.05 1.07 1.06 1.06 1.04 0.99 0.96 0.95 0.94 0.91 0.89 0.87 0.86 0.85 0.86 0.86 0.85 0.84 0.84 0.82 0.81 0.79 0.76 0.73 0.71 0.68 0.66 0.65 0.61 0.58 0.54
0.30 0.28 0.30 0.26 0.24 0.26 0.24 0.22 0.23 0.22 0.19 0.23 0.30 0.36 0.41 0.43 0.40 0.39 0.29 0.27 0.29 0.34 0.37 0.43 0.44 0.50 0.56 0.61 0.60 0.60 0.60 0.53 0.50 0.57 0.72 0.76 0.76 0.74 0.78 0.80 0.83 0.87 0.89 0.90 0.94 0.94 0.93 0.97 1.00 1.01 1.01 1.00 1.02 1.04 1.04 1.04 1.03 1.01 0.98 0.94 0.93 0.91 0.90 0.89 0.88 0.87 0.86 0.85 0.86 0.85 0.85 0.84 0.82 0.80 0.78 0.77 0.73 0.70 0.68 0.67 0.64 0.62 0.60 0.54 0.50 0.45
0.31 0.32 0.32 0.27 0.25 0.23 0.23 0.22 0.22 0.20 0.23 0.31 0.34 0.36 0.43 0.41 0.40 0.41 0.28 0.25 0.32 0.35 0.39 0.44 0.45 0.48 0.51 0.53 0.56 0.56 0.49 0.40 0.41 0.52 0.69 0.74 0.76 0.77 0.74 0.77 0.81 0.84 0.88 0.92 0.94 0.92 0.91 0.93 0.96 0.98 0.99 0.99 0.98 1.00 1.01 1.00 0.97 0.92 0.90 0.91 0.91 0.89 0.87 0.86 0.87 0.86 0.85 0.85 0.85 0.85 0.83 0.81 0.79 0.76 0.74 0.71 0.69 0.67 0.63 0.58 0.52 0.49 0.48 0.44 0.41 0.40
0.29 0.30 0.29 0.26 0.25 0.24 0.24 0.22 0.22 0.25 0.28 0.36 0.42 0.44 0.45 0.48 0.42 0.34 0.21 0.21 0.35 0.43 0.49 0.47 0.46 0.52 0.53 0.53 0.53 0.48 0.41 0.36 0.40 0.53 0.71 0.76 0.77 0.78 0.75 0.74 0.78 0.80 0.84 0.91 0.94 0.95 0.96 0.99 0.98 0.95 0.95 0.94 0.95 0.98 0.97 0.95 0.91 0.87 0.85 0.86 0.87 0.84 0.82 0.82 0.84 0.85 0.85 0.83 0.81 0.80 0.78 0.77 0.75 0.74 0.72 0.69 0.67 0.65 0.62 0.58 0.54 0.52 0.49 0.47 0.45 0.44
0.26 0.28 0.27 0.24 0.25 0.25 0.24 0.24 0.27 0.29 0.38 0.46 0.47 0.50 0.50 0.48 0.42 0.24 0.19 0.31 0.44 0.49 0.51 0.49 0.50 0.51 0.51 0.52 0.49 0.42 0.44 0.43 0.49 0.65 0.76 0.79 0.76 0.76 0.79 0.82 0.84 0.84 0.83 0.86 0.90 0.95 0.95 0.96 0.96 0.95 0.95 0.96 0.96 0.94 0.92 0.89 0.85 0.82 0.81 0.81 0.79 0.77 0.79 0.82 0.82 0.81 0.78 0.76 0.76 0.75 0.74 0.74 0.73 0.70 0.69 0.67 0.63 0.61 0.61 0.61 0.60 0.58 0.56 0.53 0.51 0.48
0.26 0.27 0.26 0.26 0.25 0.24 0.24 0.22 0.25 0.32 0.44 0.52 0.51 0.54 0.54 0.41 0.27 0.26 0.48 0.56 0.56 0.55 0.58 0.51 0.55 0.57 0.52 0.48 0.46 0.44 0.53 0.63 0.67 0.72 0.74 0.76 0.74 0.74 0.76 0.79 0.84 0.86 0.91 0.94 0.95 0.93 0.92 0.93 0.93 0.93 0.94 0.95 0.94 0.91 0.89 0.86 0.81 0.79 0.78 0.78 0.77 0.78 0.81 0.79 0.77 0.74 0.73 0.72 0.71 0.71 0.71 0.71 0.71 0.70 0.67 0.65 0.64 0.64 0.65 0.66 0.65 0.62 0.58 0.52 0.45 0.40
0.28 0.24 0.24 0.24 0.28 0.27 0.26 0.23 0.22 0.19 0.38 0.47 0.50 0.46 0.52 0.34 0.38 0.53 0.59 0.61 0.61 0.57 0.58 0.56 0.56 0.60 0.58 0.56 0.58 0.59 0.65 0.66 0.67 0.70 0.74 0.76 0.75 0.73 0.73 0.77 0.79 0.80 0.82 0.86 0.89 0.93 0.92 0.89 0.89 0.90 0.92 0.93 0.92 0.89 0.88 0.85 0.81 0.79 0.79 0.77 0.77 0.78 0.76 0.74 0.73 0.72 0.72 0.71 0.70 0.70 0.70 0.69 0.69 0.67 0.67 0.66 0.67 0.66 0.64 0.63 0.58 0.51 0.46 0.41 0.38 0.36
0.33 0.24 0.25 0.26 0.29 0.24 0.24 0.22 0.24 0.34 0.42 0.50 0.45 0.36 0.50 0.52 0.62 0.64 0.62 0.57 0.58 0.57 0.58 0.62 0.61 0.63 0.66 0.65 0.65 0.68 0.70 0.70 0.72 0.74 0.76 0.76 0.76 0.76 0.77 0.81 0.83 0.83 0.86 0.90 0.92 0.90 0.91 0.90 0.91 0.90 0.91 0.92 0.90 0.89 0.87 0.84 0.81 0.79 0.77 0.74 0.74 0.73 0.73 0.72 0.72 0.72 0.70 0.69 0.69 0.69 0.68 0.68 0.68 0.68 0.68 0.67 0.66 0.63 0.57 0.51 0.44 0.39 0.37 0.35 0.33 0.31
0.40 0.30 0.36 0.31 0.34 0.28 0.32 0.38 0.47 0.56 0.57 0.60 0.56 0.54 0.60 0.67 0.68 0.70 0.66 0.60 0.55 0.55 0.62 0.61 0.69 0.73 0.73 0.70 0.73 0.72 0.69 0.69 0.70 0.73 0.71 0.71 0.73 0.72 0.73 0.79 0.80 0.81 0.84 0.84 0.85 0.89 0.90 0.89 0.88 0.88 0.89 0.89 0.87 0.87 0.86 0.84 0.79 0.75 0.71 0.71 0.72 0.71 0.71 0.71 0.71 0.70 0.68 0.67 0.67 0.66 0.67 0.67 0.67 0.66 0.65 0.62 0.56 0.48 0.44 0.41 0.40 0.36 0.36 0.34 0.32 0.30
0.53 0.52 0.47 0.40 0.42 0.47 0.52 0.57 0.62 0.60 0.62 0.67 0.70 0.69 0.65 0.68 0.71 0.71 0.68 0.62 0.62 0.65 0.66 0.63 0.71 0.76 0.76 0.75 0.72 0.72 0.69 0.71 0.71 0.74 0.75 0.74 0.73 0.75 0.78 0.81 0.83 0.86 0.86 0.85 0.85 0.87 0.89 0.89 0.88 0.87 0.85 0.85 0.86 0.86 0.85 0.82 0.78 0.72 0.71 0.71 0.71 0.71 0.71 0.70 0.69 0.67 0.66 0.65 0.66 0.66 0.67 0.65 0.63 0.60 0.57 0.53 0.51 0.48 0.45 0.41 0.38 0.36 0.36 0.35 0.33 0.31
0.53 0.50 0.48 0.39 0.46 0.37 0.34 0.52 0.56 0.56 0.57 0.62 0.65 0.74 0.74 0.72 0.70 0.71 0.69 0.69 0.69 0.71 0.73 0.81 0.79 0.75 0.76 0.77 0.74 0.72 0.73 0.76 0.74 0.75 0.76 0.73 0.72 0.73 0.75 0.77 0.81 0.83 0.82 0.81 0.84 0.87 0.87 0.86 0.82 0.82 0.82 0.81 0.83 0.84 0.83 0.80 0.78 0.74 0.72 0.70 0.71 0.71 0.70 0.68 0.66 0.65 0.64 0.65 0.66 0.65 0.63 0.59 0.56 0.54 0.52 0.51 0.47 0.44 0.41 0.39 0.36 0.34 0.33 0.32 0.31 0.30
0.41 0.54 0.45 0.44 0.44 0.39 0.39 0.55 0.61 0.64 0.64 0.65 0.64 0.64 0.67 0.69 0.70 0.70 0.70 0.74 0.77 0.79 0.79 0.78 0.87 0.84 0.79 0.76 0.78 0.76 0.77 0.80 0.76 0.75 0.73 0.71 0.70 0.72 0.74 0.78 0.81 0.82 0.84 0.86 0.87 0.88 0.87 0.84 0.81 0.81 0.81 0.80 0.83 0.82 0.81 0.78 0.76 0.73 0.72 0.71 0.71 0.69 0.68 0.66 0.66 0.65 0.65 0.65 0.63 0.60 0.57 0.53 0.50 0.48 0.45 0.43 0.41 0.38 0.36 0.35 0.34 0.32 0.31 0.31 0.30 0.27
0.58 0.60 0.40 0.46 0.42 0.51 0.55 0.60 0.61 0.61 0.62 0.61 0.65 0.67 0.69 0.69 0.70 0.69 0.69 0.71 0.73 0.77 0.81 0.84 0.86 0.84 0.80 0.78 0.80 0.77 0.77 0.81 0.81 0.78 0.73 0.72 0.73 0.72 0.74 0.78 0.82 0.83 0.84 0.83 0.85 0.86 0.84 0.83 0.83 0.83 0.82 0.82 0.83 0.81 0.78 0.76 0.74 0.72 0.70 0.70 0.70 0.69 0.68 0.67 0.67 0.66 0.63 0.60 0.58 0.55 0.53 0.50 0.47 0.44 0.42 0.40 0.38 0.37 0.36 0.33 0.32 0.31 0.31 0.33 0.33 0.31
0.55 0.47 0.53 0.47 0.37 0.37 0.43 0.51 0.58 0.43 0.42 0.55 0.60 0.64 0.66 0.67 0.71 0.69 0.68 0.67 0.69 0.69 0.76 0.75 0.78 0.85 0.83 0.82 0.78 0.77 0.79 0.84 0.83 0.81 0.76 0.74 0.74 0.74 0.76 0.79 0.80 0.81 0.84 0.87 0.88 0.86 0.84 0.85 0.84 0.83 0.82 0.82 0.80 0.77 0.75 0.72 0.71 0.70 0.71 0.72 0.72 0.71 0.69 0.67 0.65 0.62 0.58 0.57 0.55 0.53 0.50 0.47 0.44 0.42 0.40 0.38 0.35 0.33 0.33 0.34 0.34 0.33 0.30 0.29 0.30 0.31
0.53 0.55 0.51 0.44 0.42 0.40 0.56 0.63 0.64 0.60 0.58 0.60 0.64 0.66 0.67 0.71 0.70 0.66 0.66 0.67 0.69 0.71 0.75 0.74 0.71 0.75 0.76 0.79 0.83 0.80 0.81 0.82 0.82 0.83 0.78 0.75 0.76 0.77 0.78 0.79 0.78 0.79 0.81 0.84 0.84 0.83 0.83 0.83 0.83 0.83 0.81 0.80 0.78 0.75 0.72 0.70 0.71 0.71 0.72 0.73 0.74 0.72 0.69 0.66 0.61 0.59 0.56 0.55 0.53 0.50 0.46 0.43 0.41 0.39 0.37 0.36 0.33 0.32 0.29 0.28 0.31 0.32 0.31 0.30 0.27 0.25
Wind_Speed
31 30 32 32 31 32 33 33 31 29 28 26 25 25 26 26 25 24 24 24 24 25 28 27 25 25 25 24 23 20 17 17 20 22 22 22 22 21 20 19 19 18 18 18 19 20 21 21 20 20 21 20 20 20 20 20 20 20 18 17 17 17 16 16 14 14 14 13 12 12 11 11 11 11 10 10 10 10 9 9 9 9 9 9 9 8
32 33 33 32 30 30 32 32 30 29 30 27 24 24 25 26 26 25 24 23 23 24 27 27 26 25 24 23 22 19 18 20 21 22 23 23 21 21 20 19 19 18 17 17 18 19 19 20 21 21 21 22 21 20 20 20 20 19 18 17 17 16 16 15 14 14 14 13 13 12 12 11 11 11 10 10 10 10 9 9 9 9 9 9 9 8
33 34 33 31 30 29 30 32 32 30 30 28 25 23 23 24 23 24 25 24 22 23 25 27 26 24 23 21 20 19 20 23 24 23 24 23 22 21 20 19 18 18 18 18 18 18 19 20 21 22 21 22 22 20 20 20 20 19 18 17 17 16 15 15 15 15 14 13 12 12 12 11 11 10 10 10 10 10 9 9 9 9 9 9 8 9
32 32 31 31 30 30 30 31 33 31 29 29 26 24 23 23 22 22 24 24 23 23 24 25 25 23 21 18 17 19 21 23 23 22 22 23 23 22 21 19 18 18 19 19 18 18 18 19 21 22 21 22 22 20 20 20 19 19 19 18 17 16 16 15 15 14 14 13 12 11 11 11 10 10 10 10 10 10 10 10 10 9 9 8 8 7
31 29 30 31 30 31 31 31 32 31 30 30 29 26 24 24 23 21 20 21 21 22 23 23 22 22 20 16 16 20 21 20 20 19 20 21 22 21 19 18 18 18 19 19 19 18 18 19 20 21 21 22 23 22 21 20 20 20 19 18 17 17 16 15 15 14 14 13 12 11 11 10 10 9 9 9 9 10 10 10 10 9 8 8 7 6
30 28 30 31 31 32 31 30 32 32 30 30 30 29 26 24 23 20 19 19 19 20 23 22 20 20 19 17 17 20 20 20 20 20 20 20 20 20 19 18 17 17 18 19 19 19 18 18 19 20 21 22 23 23 22 20 21 21 19 18 17 17 16 15 15 14 14 13 12 12 11 10 10 9 9 9 9 9 10 10 9 9 7 7 7 6
29 29 29 31 31 32 32 31 31 32 30 29 30 29 26 25 24 21 20 20 19 20 23 23 19 17 17 17 19 21 21 21 21 20 21 21 20 20 19 18 18 17 17 18 18 18 18 18 19 20 21 22 22 23 23 21 21 21 18 17 17 16 16 15 15 14 14 13 12 12 11 10 10 9 9 9 8 9 9 9 9 8 7 7 7 6
30 30 30 31 31 31 32 31 31 31 30 29 28 27 26 26 26 23 19 19 18 18 22 25 21 17 16 18 20 22 21 22 22 21 21 21 20 19 19 18 18 18 18 18 18 18 18 18 18 20 20 21 22 22 23 21 19 18 17 16 16 16 15 14 14 14 14 13 12 12 11 10 10 10 9 9 9 8 8 8 8 8 7 7 7 7
30 30 30 31 32 30 31 31 30 29 29 27 26 27 26 25 26 23 19 18 17 18 21 24 22 18 17 17 19 21 23 23 23 23 22 21 21 20 19 19 19 18 17 17 18 17 18 18 18 18 18 20 21 20 20 18 16 16 15 14 15 15 15 14 14 14 13 13 12 12 11 11 10 10 9 9 9 9 8 8 8 7 8 8 7 7
29 30 29 30 31 30 29 29 29 29 28 26 25 26 26 24 24 23 20 17 17 19 22 24 22 18 17 17 19 22 24 25 24 22 22 21 21 20 19 19 19 18 17 17 18 18 18 18 18 17 18 19 19 18 17 15 14 14 14 14 14 14 14 14 14 13 13 13 12 12 11 11 10 9 9 9 9 8 8 8 8 8 8 8 7 7
28 29 28 28 29 28 27 28 29 28 25 24 25 25 25 24 22 21 20 17 16 20 23 25 24 19 16 18 21 25 25 25 23 21 21 20 20 21 20 19 19 18 17 17 18 18 17 17 17 17 18 19 18 18 17 15 14 14 14 13 13 14 14 14 14 13 13 12 12 12 11 11 10 10 9 9 9 8 8 8 7 7 7 7 7 7
28 29 28 27 28 27 26 26 28 28 25 24 25 25 24 23 21 20 20 18 17 19 21 24 25 21 18 18 21 24 25 24 23 20 21 20 20 20 20 20 19 17 16 17 18 18 16 17 18 18 19 19 18 18 17 15 14 14 13 13 13 13 14 14 13 13 13 12 12 11 11 11 10 9 9 9 9 8 8 7 6 6 7 6 7 7
28 29 28 27 28 29 27 26 27 28 26 26 26 26 23 22 21 21 20 19 18 18 19 23 24 20 19 18 19 22 24 24 23 21 21 21 20 20 20 19 19 17 16 16 18 18 17 18 18 18 19 19 18 18 17 16 14 14 14 14 14 14 14 13 13 14 13 12 11 11 10 10 9 9 9 9 8 8 8 7 7 7 7 7 7 8
26 27 29 28 27 29 29 27 27 29 28 28 28 27 23 21 22 22 20 18 17 17 19 21 21 19 18 17 17 20 23 24 22 21 22 22 21 20 19 19 18 17 16 16 17 18 18 18 18 18 19 19 18 17 16 16 15 15 15 14 14 14 13 13 13 13 13 12 11 10 10 10 9 9 9 8 8 9 8 8 7 7 7 7 7 8
25 26 30 30 27 29 31 27 27 27 27 28 29 26 23 22 21 21 19 17 17 17 18 18 18 18 18 17 17 19 22 21 19 20 21 21 21 19 17 17 17 17 16 16 17 18 18 18 18 18 18 18 18 17 16 16 16 16 15 14 14 14 13 13 13 13 13 12 10 10 9 10 10 9 9 9 9 9 8 8 8 7 8 8 8 8
25 24 28 29 25 28 30 27 26 26 24 26 27 26 25 23 20 20 19 17 16 15 17 19 17 16 16 15 14 16 19 20 18 18 20 20 19 18 17 16 17 17 16 16 17 17 17 17 18 18 18 18 17 17 17 17 16 17 16 15 14 14 13 13 12 12 12 11 10 10 9 10 10 10 10 9 9 9 8 8 8 8 8 8 9 9
24 22 26 29 25 26 30 26 26 27 24 24 27 28 27 22 18 19 20 18 16 15 17 20 17 14 13 13 12 15 18 19 19 19 20 20 18 18 17 16 17 16 16 17 16 16 17 17 17 17 17 17 17 16 16 16 16 16 16 15 14 13 13 13 13 12 12 11 10 10 10 10 10 10 10 9 9 8 8 8 8 8 9 9 9 9
22 20 24 30 26 26 28 25 23 25 24 24 28 28 24 20 18 18 19 18 18 16 17 19 19 16 14 13 13 16 18 18 19 20 20 19 18 17 16 17 17 16 15 16 15 16 16 16 16 16 16 16 16 15 15 16 16 16 16 15 15 14 13 13 13 12 12 11 11 10 10 10 10 10 10 10 9 9 9 9 9 9 9 9 9 9
21 17 20 27 26 25 26 24 22 24 24 23 25 26 23 20 20 18 18 19 20 18 15 17 20 18 16 15 14 16 19 20 20 21 20 19 18 16 15 16 16 15 15 14 15 15 16 16 15 15 15 15 15 16 15 15 16 16 15 16 15 14 13 12 12 12 11 11 11 11 11 11 11 11 10 10 10 10 9 9 9 9 9 9 9 9
21 17 17 23 24 23 24 24 24 26 25 21 21 26 26 21 19 18 17 18 20 20 16 16 18 18 17 17 16 16 19 20 21 22 20 19 18 16 15 15 15 15 14 15 15 15 15 16 15 15 15 15 15 16 16 15 15 15 15 16 15 13 13 12 11 11 11 11 11 11 11 11 11 11 10 10 10 10 10 10 9 9 9 10 10 10
21 18 19 22 22 23 25 26 26 26 25 22 22 27 28 23 20 20 18 16 17 18 19 17 16 17 17 17 17 18 19 21 22 21 19 19 19 18 17 17 15 14 14 15 15 15 15 15 15 15 15 15 15 16 16 15 15 15 15 15 14 13 13 12 11 11 11 11 11 11 11 11 11 11 11 10 10 10 10 10 10 10 10 10 10 11
20 20 21 22 23 24 25 25 27 27 25 23 23 26 27 25 22 19 18 18 16 16 18 19 17 16 16 16 18 20 20 20 21 20 19 19 20 20 19 18 16 15 15 15 15 16 16 15 15 15 14 15 16 16 15 15 15 15 14 14 14 13 12 12 11 11 11 11 11 11 11 11 11 11 10 10 10 10 10 10 11 11 11 11 11 11
19 20 22 22 22 22 22 23 26 27 23 22 24 24 24 26 25 20 18 18 18 16 16 17 18 17 16 15 17 19 19 20 21 20 19 20 20 21 20 18 16 16 16 16 16 16 16 15 16 15 15 16 16 15 15 15 15 15 14 13 13 13 12 12 11 11 10 10 11 11 11 10 10 11 11 11 11 11 11 11 11 11 11 12 12 11
17 18 21 21 19 20 21 22 26 27 22 21 26 25 22 24 26 23 18 16 16 17 15 14 15 17 16 13 14 17 18 17 19 20 19 19 20 20 20 18 17 16 16 16 17 17 16 16 16 16 16 16 16 15 15 15 15 15 14 13 13 12 12 11 11 10 10 10 11 11 11 11 11 11 11 11 11 11 11 12 11 12 12 12 11 11
17 17 21 21 18 20 22 23 26 28 25 21 24 26 23 23 25 24 19 16 15 16 16 14 14 16 16 14 13 15 16 15 16 19 19 18 19 19 18 18 18 17 17 17 17 17 17 17 17 17 17 16 15 15 15 15 15 14 13 13 13 12 12 11 10 10 10 10 11 11 11 11 11 11 11 12 12 11 12 12 12 12 12 11 11 10
17 17 21 21 19 20 21 22 25 27 25 21 22 26 25 22 24 25 22 18 16 16 16 15 13 14 15 14 14 16 16 15 15 17 19 19 19 19 18 17 18 18 18 18 18 17 17 18 18 17 17 17 15 15 15 14 14 14 13 12 12 12 11 11 10 10 10 11 11 11 12 12 12 13 13 13 12 12 12 12 12 11 11 11 10 10
17 16 21 21 19 18 17 18 22 24 23 22 21 24 25 23 22 23 23 21 18 16 16 16 15 14 14 14 16 17 17 16 16 16 17 18 18 17 17 17 18 18 19 19 18 17 18 18 18 18 18 17 16 16 15 14 14 14 13 12 12 12 12 11 11 10 11 11 11 12 12 12 12 12 13 12 12 12 12 11 11 10 10 10 10 11
17 16 21 21 18 17 16 16 20 22 23 23 22 22 24 23 21 21 23 23 19 16 16 17 17 15 14 14 16 17 17 17 16 17 17 17 17 16 16 17 17 18 19 19 18 18 18 18 18 18 19 18 17 16 15 14 14 13 13 12 12 12 12 12 11 11 11 11 11 11 11 11 11 11 12 11 11 11 11 10 10 10 10 10 10 11
17 17 20 20 17 16 17 16 18 21 23 23 22 23 24 24 23 21 21 20 19 18 17 17 17 17 17 16 16 16 16 15 15 16 17 17 17 16 16 16 17 18 19 19 19 19 18 19 18 18 19 18 17 16 15 14 14 13 13 13 12 12 12 12 12 12 12 12 12 11 11 11 11 11 11 10 10 10 9 9 9 9 9 10 10 11
16 16 18 19 17 15 15 16 18 20 22 24 23 22 22 24 25 22 20 19 18 18 19 18 17 17 18 18 17 15 14 13 13 14 15 16 17 17 17 17 17 17 19 19 19 19 19 19 19 19 19 18 17 17 15 15 14 14 13 13 13 13 13 13 13 12 13 13 12 12 12 12 11 10 10 10 9 9 8 9 9 9 10 10 11 12
16 16 16 16 16 15 14 14 16 19 22 24 24 22 21 22 23 23 22 20 18 18 19 18 16 16 16 17 17 16 15 14 13 14 15 16 17 18 17 17 17 18 18 19 19 19 19 19 19 19 19 18 18 17 16 15 15 14 14 13 13 13 13 13 13 13 12 13 13 13 12 12 11 10 10 10 9 9 9 9 10 10 10 10 11 11
17 15 15 14 13 14 15 13 13 16 20 23 23 22 21 21 21 22 22 22 20 18 18 18 17 17 17 16 16 16 16 16 16 16 16 17 18 18 18 18 18 18 19 19 19 19 19 19 19 19 19 18 18 18 17 17 16 15 14 14 14 14 13 13 13 12 12 13 13 12 12 11 11 10 10 10 9 9 10 10 10 10 10 10 10 10
17 14 14 13 12 13 15 13 11 12 17 20 20 21 22 22 21 21 21 22 21 18 18 19 20 19 19 18 16 16 17 17 18 18 18 18 18 18 18 18 18 19 19 19 19 19 19 19 19 19 19 18 18 18 18 18 17 16 16 15 14 14 13 13 12 12 12 12 12 11 11 10 10 10 10 10 9 9 10 9 9 9 9 9 10 10
16 15 13 13 13 12 13 13 11 11 14 17 17 17 20 21 20 21 22 23 21 18 17 18 19 19 19 19 18 16 16 17 18 19 19 19 19 18 18 19 19 20 20 20 20 20 20 20 20 19 19 19 18 17 17 17 17 17 17 16 14 14 13 12 12 12 11 11 11 10 10 9 9 9 9 9 9 9 9 8 8 8 9 9 10 10
16 15 13 13 13 12 12 12 12 13 14 16 15 16 18 18 17 18 21 23 23 20 18 18 18 18 19 18 18 17 16 16 17 18 19 20 19 18 17 18 19 20 20 20 20 19 19 20 20 19 19 19 18 17 17 17 17 17 16 16 15 14 13 12 12 11 11 11 11 10 10 10 9 9 8 8 8 8 8 8 8 8 9 9 10 10
16 15 13 12 13 13 12 13 13 14 14 13 12 13 15 16 15 15 17 20 22 22 21 20 19 18 18 18 18 18 17 16 16 17 19 19 18 18 17 17 18 19 20 20 20 19 19 20 20 19 19 18 18 17 17 16 16 16 16 15 15 15 13 12 11 10 10 11 11 10 10 9 8 8 8 8 8 8 8 8 8 9 9 9 10 10
16 15 13 12 12 13 13 13 13 12 12 12 12 12 13 14 15 16 16 19 20 21 22 23 21 19 19 18 18 18 18 16 16 17 18 19 18 17 17 17 17 18 19 20 20 20 20 19 19 19 18 18 17 17 16 16 15 15 15 15 15 14 13 12 10 10 10 10 10 9 9 8 8 8 8 8 8 8 8 9 9 10 10 10 9 9
17 15 13 12 12 13 13 12 12 11 12 14 15 14 13 13 14 15 16 18 18 18 20 24 24 22 21 19 18 18 17 17 17 18 19 19 18 17 17 18 18 18 19 19 19 20 20 19 19 18 18 17 17 16 16 15 15 14 15 15 14 13 12 11 11 11 10 10 9 9 9 8 8 8 9 8 8 8 9 9 10 10 10 9 8 8
17 15 13 12 12 13 13 12 12 12 13 15 15 14 13 13 14 14 15 18 19 16 17 22 24 23 22 22 20 19 18 18 19 19 20 20 19 18 18 18 18 18 18 19 20 20 20 19 19 19 18 18 17 16 16 15 15 14 15 15 14 12 11 11 11 11 10 10 9 9 9 9 9 9 8 8 9 9 9 8 8 7 7 7 7 8
16 15 13 13 12 12 13 12 12 12 13 13 13 12 13 13 13 14 16 18 19 17 16 21 24 24 23 23 22 20 19 20 19 19 21 21 20 19 19 19 19 19 18 19 20 20 20 20 20 19 19 18 17 17 16 16 15 14 14 14 14 13 11 11 11 11 10 9 9 9 9 9 9 8 9 9 9 8 8 7 7 6 7 7 7 7
15 14 14 14 13 12 12 12 12 13 12 12 12 11 11 11 13 15 17 19 19 17 18 21 24 24 24 24 23 21 20 20 20 20 21 21 20 19 20 20 20 19 18 19 20 20 21 21 20 20 19 18 18 17 17 16 15 14 14 13 13 13 12 12 11 10 10 9 9 9 9 9 8 8 8 8 8 7 7 7 7 7 7 7 7 6
13 13 14 14 14 13 12 12 11 11 12 12 11 10 9 10 14 17 17 18 19 17 17 21 22 21 23 24 22 20 19 19 21 22 22 21 20 20 20 21 21 20 19 19 20 21 21 20 20 19 19 18 18 17 17 16 15 14 13 13 13 13 12 12 11 11 10 10 9 8 8 8 8 8 8 7 7 6 6 6 6 6 6 6 5 5
12 12 13 14 14 12 11 11 11 11 13 12 10 10 11 12 15 16 16 17 17 15 16 20 21 21 22 21 19 19 20 21 22 22 22 21 21 20 20 21 21 21 20 20 21 21 21 20 20 20 19 19 18 17 17 16 15 14 14 13 13 13 12 12 11 11 10 10 9 8 8 8 7 7 7 6 6 6 6 6 6 6 5 5 4 4
10 11 13 13 13 12 10 10 11 11 11 10 10 11 12 13 13 14 14 15 16 15 17 19 20 20 20 19 18 19 21 21 21 22 22 21 21 20 20 21 22 22 22 22 21 21 21 20 20 20 19 19 18 18 17 16 15 14 14 13 13 13 12 12 12 11 10 10 9 9 8 8 7 7 7 6 6 6 6 6 5 5 4 4 4 4
10 11 13 12 12 12 11 10 10 9 8 8 9 9 10 11 11 11 12 13 14 15 17 19 18 18 19 19 19 19 20 20 21 21 22 22 22 21 20 21 22 23 23 23 22 21 21 21 20 20 19 19 18 18 17 17 16 15 14 14 14 13 13 12 12 11 10 10 9 9 8 8 7 7 6 6 6 6 5 5 5 4 4 4 4 4
10 10 12 12 11 11 11 9 8 8 7 7 7 8 8 9 9 9 10 11 12 14 15 17 19 20 20 20 19 19 19 20 20 20 21 22 21 20 20 20 22 23 24 23 22 22 21 20 20 20 19 19 19 18 18 17 16 15 14 14 14 14 13 13 12 11 10 10 9 9 8 7 7 7 6 6 6 6 6 5 5 5 5 5 5 4
9 8 10 11 10 10 10 10 8 8 8 8 8 7 7 8 8 9 9 10 12 13 14 15 17 19 19 20 19 19 19 19 19 20 21 22 21 20 19 20 22 23 24 23 23 22 22 21 20 20 19 19 18 18 18 17 16 15 15 14 14 14 14 13 12 11 10 10 9 9 8 7 7 6 6 6 6 6 6 5 5 4 4 4 4 4
9 9 10 10 10 10 11 11 9 9 8 8 8 9 8 8 8 8 9 9 10 12 14 15 16 17 18 18 19 18 19 19 20 20 21 21 21 20 20 21 22 22 23 23 23 23 22 21 20 20 19 19 19 19 18 17 16 15 15 15 15 15 14 13 12 11 10 10 9 8 8 7 7 7 6 6 6 6 5 5 5 4 4 4 5 5
9 9 9 10 10 10 10 10 9 8 8 8 8 9 9 8 8 8 8 9 9 11 13 15 16 16 17 18 18 18 18 19 20 21 21 21 21 21 21 21 22 22 23 23 23 23 22 21 21 20 20 20 19 19 18 17 16 16 16 16 15 15 14 13 12 11 11 10 9 9 8 8 7 7 7 7 6 6 5 5 5 5 5 5 6 6
7 8 8 9 10 11 10 10 10 10 10 10 10 9 9 9 9 9 9 9 9 11 12 14 15 16 17 18 19 18 18 19 20 21 22 22 21 22 22 22 22 22 23 23 23 22 22 22 21 21 20 20 19 18 17 17 16 16 16 16 16 15 14 13 12 12 11 10 10 9 9 9 8 8 8 8 7 7 6 5 5 5 6 6 6 7
6 7 7 8 10 11 11 10 10 11 11 11 10 9 9 9 9 9 9 9 9 11 12 13 14 15 16 18 18 19 19 20 20 21 22 22 22 22 23 23 22 22 23 23 23 23 22 22 22 21 21 21 20 18 17 17 16 16 16 16 16 15 14 13 13 12 12 11 10 10 10 9 9 9 9 8 8 8 7 6 5 5 6 6 7 7
Wind_Direction
213 215 217 217 217 216 216 217 219 220 221 222 223 223 225 227 230 229 228 227 225 226 226 226 232 235 236 235 236 233 220 220 223 223 225 223 221 221 221 224 226 229 234 235 235 234 232 228 227 228 225 221 220 221 223 221 215 208 200 196 198 201 202 204 206 207 208 212 216 220 223 225 228 233 235 237 240 242 245 248 250 251 254 257 263 274
214 218 219 216 216 216 216 217 218 219 220 222 223 223 223 225 229 229 229 226 222 226 226 224 229 235 235 235 234 227 220 223 223 223 226 225 223 221 218 220 224 229 233 233 234 234 231 228 226 226 224 220 217 219 221 219 215 211 204 201 201 203 204 206 207 208 210 215 219 222 225 228 231 234 236 237 240 243 246 249 252 254 257 260 263 268
215 219 218 215 215 215 215 215 216 218 219 221 223 223 222 223 225 228 229 226 221 225 226 222 226 234 237 238 232 224 223 224 221 219 221 220 220 219 216 218 223 228 230 230 232 233 230 227 223 219 219 216 214 216 219 219 217 212 207 205 205 204 205 207 208 209 213 218 222 226 229 230 234 237 238 240 240 242 247 252 255 256 256 257 260 264
216 218 215 213 214 214 215 214 215 218 219 220 221 222 224 223 221 224 225 224 221 224 224 220 224 232 237 238 232 224 221 221 223 222 219 215 213 213 215 219 222 225 227 227 229 229 225 223 221 217 215 212 211 213 215 216 215 211 209 207 205 204 205 207 209 211 214 218 224 229 232 233 236 238 239 241 242 242 246 251 255 255 253 253 258 261
216 216 212 212 213 213 214 214 214 216 218 220 220 220 223 223 223 224 222 221 222 223 218 215 222 231 231 227 227 226 222 219 223 222 219 215 211 212 219 223 223 222 223 224 225 226 224 223 220 216 213 212 212 213 214 214 214 213 211 207 204 204 207 208 210 212 215 218 222 227 231 235 235 237 238 239 240 243 245 247 249 250 251 251 253 257
216 213 209 210 212 211 213 214 213 213 216 220 220 219 220 223 225 225 221 217 216 219 216 210 218 231 228 218 219 222 221 219 220 220 219 216 214 216 219 220 222 222 222 222 223 225 225 225 221 215 213 213 213 214 217 218 216 214 211 205 204 207 209 211 212 215 218 220 222 224 226 230 230 233 237 236 237 241 243 243 244 246 248 248 249 254
214 210 208 209 210 210 213 215 213 212 215 219 219 217 219 222 225 227 223 217 214 217 217 213 217 229 227 218 217 217 217 217 218 222 222 219 217 217 216 217 219 222 225 224 224 224 224 224 222 218 216 215 214 216 219 219 216 213 208 205 206 209 213 214 215 219 221 222 224 223 225 228 228 229 235 237 237 238 239 239 241 244 245 246 245 249
211 209 207 207 208 210 212 214 212 210 214 218 215 214 217 220 224 226 223 221 221 217 216 216 216 223 227 222 217 214 214 217 218 222 225 224 222 220 218 220 221 223 226 224 223 223 222 222 221 218 216 215 216 217 217 216 213 210 207 207 209 213 216 217 218 221 223 225 225 223 226 230 230 231 233 235 236 236 236 234 237 242 245 244 241 248
209 209 206 205 208 211 212 212 210 209 213 215 212 213 215 217 221 223 220 224 225 213 213 217 215 220 229 224 218 216 215 217 219 221 224 225 225 225 225 225 225 224 224 221 220 221 220 220 219 215 213 215 216 217 216 214 211 211 211 210 211 215 217 218 220 222 224 226 226 225 227 229 232 234 234 233 234 233 232 231 231 237 239 238 242 255
208 210 207 206 208 210 211 210 209 210 212 211 210 213 214 215 218 219 218 223 225 216 214 215 212 219 230 225 220 221 218 218 221 224 226 226 224 226 226 225 225 224 222 220 218 218 219 218 216 213 213 215 217 218 219 217 214 216 216 213 212 216 219 221 222 223 224 225 225 225 226 229 230 233 234 232 230 229 229 228 227 229 233 238 249 261
207 209 208 208 209 209 208 208 209 210 209 206 207 210 213 214 216 217 215 217 224 225 221 216 213 219 232 231 223 222 222 219 220 224 225 225 223 222 222 221 222 223 223 220 217 217 218 215 213 212 213 215 216 217 218 219 220 221 218 214 215 220 222 224 224 223 222 223 225 226 228 230 230 230 231 229 227 227 224 221 221 224 231 242 254 265
206 206 208 208 206 205 205 205 207 208 206 203 204 206 209 212 213 216 215 214 219 227 225 218 215 217 227 233 226 223 223 218 216 221 222 222 220 218 217 217 219 222 223 221 217 216 216 214 213 213 213 215 215 215 217 220 222 221 217 212 214 220 221 222 222 220 220 222 225 229 230 231 230 228 228 226 225 222 214 214 220 223 230 243 257 267
206 206 205 205 203 202 203 202 203 205 203 202 203 203 203 203 207 212 213 214 216 224 225 215 211 218 224 229 225 219 218 216 218 220 219 218 215 213 214 214 217 221 222 221 217 215 215 214 214 213 213 215 216 216 219 221 220 217 214 211 212 216 217 217 218 217 217 220 224 227 228 228 227 223 221 218 214 210 210 217 222 224 233 247 258 268
204 205 203 202 202 201 202 200 200 203 202 202 204 201 197 197 203 210 211 212 215 221 222 211 211 223 228 228 225 216 215 217 219 218 213 211 210 208 209 211 214 218 218 218 215 213 214 213 213 212 211 214 217 217 218 219 218 214 211 211 212 212 212 213 214 214 214 218 222 223 223 222 218 213 210 208 206 208 215 221 224 230 241 251 260 268
200 203 201 201 201 199 201 202 199 200 201 203 203 201 201 201 204 208 208 208 213 217 217 210 214 224 224 230 229 217 215 216 215 215 209 207 207 205 205 207 210 213 214 214 213 212 211 210 209 209 210 213 216 216 216 218 218 214 211 213 211 209 210 210 211 211 212 215 217 217 217 215 212 210 208 209 213 216 219 223 229 237 246 254 263 271
201 205 200 200 201 197 199 202 198 198 201 201 200 202 206 207 206 207 207 207 209 214 217 214 218 222 221 233 232 213 213 213 207 207 205 203 205 204 204 205 207 209 210 211 210 207 205 204 205 206 208 211 214 216 217 218 218 213 211 212 209 208 208 207 207 207 207 210 212 212 213 213 213 212 212 215 220 222 224 231 237 244 251 259 267 273
200 204 197 197 201 198 198 200 198 198 200 199 200 205 207 207 207 206 208 212 209 213 221 218 221 225 220 230 226 203 205 210 205 203 202 200 200 201 203 204 204 206 207 206 205 203 202 202 203 204 205 210 215 217 215 214 214 210 208 206 202 200 200 201 203 202 204 207 208 210 212 214 214 213 215 221 226 229 233 239 246 253 258 264 268 272
195 199 197 196 200 199 195 196 198 200 199 198 203 205 203 207 214 208 207 212 209 214 224 219 219 221 215 223 223 201 197 203 202 201 202 200 197 197 200 201 201 202 201 202 200 199 202 204 206 206 208 212 213 210 209 208 206 204 202 198 194 194 195 197 200 201 204 208 210 213 214 215 218 219 223 228 232 237 240 247 255 260 263 266 268 271
191 194 196 194 195 196 191 192 200 204 203 201 202 201 197 204 213 208 205 208 208 213 223 222 221 220 214 216 213 197 196 199 199 198 200 202 200 197 196 196 196 197 198 199 197 198 202 204 207 207 209 211 207 203 203 201 196 196 196 194 193 195 195 196 200 204 209 213 216 219 219 220 224 227 231 233 237 242 245 252 258 261 264 266 267 269
191 189 189 189 190 192 192 195 200 202 202 202 201 199 201 206 209 204 203 206 207 211 219 221 221 221 219 215 206 199 198 197 198 200 203 204 201 196 194 191 191 193 196 198 197 199 201 204 206 205 205 205 201 199 199 194 192 192 192 192 193 194 196 197 202 208 213 217 220 222 223 225 228 230 232 235 239 243 248 253 256 258 262 264 265 269
192 191 188 188 189 190 197 203 201 198 198 201 200 199 203 208 207 205 208 209 206 210 215 217 221 224 223 220 213 206 203 201 201 205 208 208 202 198 196 193 193 194 196 197 198 200 202 204 205 204 202 199 194 194 195 193 192 191 189 191 193 194 197 200 205 211 216 219 220 221 223 225 227 229 232 235 239 244 249 253 254 257 261 264 268 272
192 191 189 189 191 195 201 204 201 199 200 204 202 199 203 206 202 201 210 214 209 210 213 214 221 226 223 222 220 212 206 205 206 209 213 211 205 204 203 200 199 199 198 199 199 201 204 205 205 203 198 194 191 190 191 191 192 191 190 192 195 198 202 205 210 215 218 218 218 218 221 224 228 232 234 238 243 248 252 256 259 260 263 268 272 274
189 188 190 193 197 200 201 198 198 202 206 206 203 202 205 206 202 200 205 211 212 214 215 213 219 226 224 224 222 213 207 205 205 208 213 212 208 207 206 202 199 199 200 201 200 202 205 204 203 201 196 194 194 191 191 191 191 191 191 194 198 202 207 211 215 217 218 217 218 220 224 228 232 235 239 244 248 252 256 260 263 264 265 269 271 275
185 186 189 193 197 199 199 197 199 202 204 204 204 203 205 205 204 204 205 209 214 215 212 209 215 222 225 225 218 208 204 204 203 205 209 212 211 208 206 204 200 199 201 202 201 203 205 204 203 202 198 196 197 194 193 194 192 191 193 196 201 206 210 215 217 218 219 220 222 226 230 234 237 239 244 249 252 256 259 261 264 266 267 269 272 277
186 186 186 187 188 189 192 196 198 201 204 206 204 203 204 204 203 207 213 216 220 217 208 205 215 219 219 217 209 201 200 203 204 203 202 207 209 207 206 206 204 202 202 201 202 205 205 204 203 203 200 198 196 193 193 195 194 192 194 199 203 208 213 216 218 219 223 225 228 232 236 239 242 244 248 253 256 258 260 262 264 266 268 269 273 277
189 188 185 185 188 188 192 197 196 198 202 206 204 202 204 204 202 207 213 214 220 221 211 208 213 213 212 211 204 199 200 203 204 202 201 205 208 206 206 206 204 203 201 200 202 204 205 204 204 203 200 197 195 192 192 194 195 195 198 203 208 212 215 218 221 223 226 229 232 235 241 245 247 248 251 254 257 260 262 263 263 265 268 271 273 275
188 191 188 188 192 194 196 198 196 197 201 203 204 204 205 205 203 205 209 211 214 218 217 213 205 198 205 212 207 202 203 205 207 206 205 206 207 206 205 204 203 201 200 201 204 205 205 205 204 201 197 195 195 194 194 196 198 199 202 206 211 217 220 221 224 227 230 233 236 239 244 248 249 250 252 254 257 259 261 261 261 264 269 271 272 275
185 190 190 190 196 199 197 196 197 201 204 204 206 208 207 205 204 205 209 211 211 214 219 214 200 193 200 209 207 204 204 208 212 212 210 208 206 203 201 199 199 199 200 203 205 205 204 203 202 200 198 197 197 198 199 200 201 203 206 210 216 222 223 223 226 230 232 234 237 240 243 247 252 253 252 253 256 258 258 257 260 266 266 265 268 275
185 189 190 191 197 200 197 197 198 200 205 206 208 211 210 208 206 205 207 211 210 211 215 209 200 200 202 202 205 205 205 207 209 209 209 207 205 202 198 196 197 198 200 203 205 204 202 201 201 201 200 199 200 201 202 203 204 208 211 214 218 223 225 226 229 231 233 235 238 239 241 246 253 253 250 251 255 256 256 256 258 262 263 264 269 277
184 187 189 189 197 200 197 199 198 197 203 207 208 209 209 210 210 208 209 212 211 208 207 203 202 207 206 202 203 204 202 200 200 199 201 201 201 200 199 200 201 202 202 203 203 203 202 201 201 202 201 203 205 205 206 208 210 212 215 217 220 222 224 227 229 230 232 236 240 240 241 245 248 249 248 250 252 252 253 255 256 259 264 268 274 280
182 186 187 187 198 205 203 203 200 196 198 204 209 210 208 210 214 214 213 213 212 210 208 203 202 209 212 205 201 200 198 197 198 197 197 199 199 199 202 204 205 205 203 202 203 203 203 202 203 204 204 207 209 209 209 212 214 215 217 219 220 221 224 228 230 231 233 236 239 240 241 243 245 247 248 248 248 249 252 255 256 260 267 272 277 282
181 186 190 188 196 204 201 200 202 198 195 200 208 213 210 210 213 215 213 210 210 212 210 206 207 212 214 208 204 205 204 203 202 199 198 200 199 199 204 207 207 206 204 203 202 202 202 202 205 207 208 209 209 210 212 215 216 218 220 221 222 223 225 229 230 231 233 236 238 239 241 243 244 247 247 246 247 251 254 258 260 263 268 273 278 283
183 185 190 190 194 201 200 194 193 195 195 199 209 215 213 212 213 214 212 210 210 211 210 211 214 215 210 205 204 208 209 208 206 203 202 204 204 205 207 208 207 206 205 204 203 203 203 205 207 209 208 208 209 211 214 216 218 220 220 221 222 222 223 226 227 227 229 232 235 237 240 242 243 245 246 246 248 252 255 259 262 266 270 274 278 282
186 185 190 191 189 199 200 189 186 195 199 203 211 212 208 208 211 213 212 211 212 213 211 211 213 213 210 207 205 206 208 208 207 205 205 205 207 209 211 210 208 206 206 207 205 205 207 209 209 208 207 208 210 212 214 217 218 218 217 219 221 220 220 221 221 223 225 228 232 236 237 238 239 241 242 243 246 251 255 260 266 272 276 278 280 284
187 186 192 194 192 197 197 185 189 203 206 206 211 212 206 205 208 213 214 215 215 212 208 208 209 210 210 209 206 202 202 202 202 203 203 204 205 207 209 210 208 205 206 206 206 207 208 207 205 204 205 206 208 210 213 217 218 216 217 219 218 217 215 215 217 222 226 228 231 234 236 236 236 237 238 242 246 251 257 261 267 274 277 279 283 287
185 186 192 196 196 197 194 190 197 209 212 211 213 215 212 209 212 216 219 221 218 212 208 209 209 209 208 207 204 201 200 201 202 203 202 202 204 204 206 208 206 204 205 205 204 205 205 202 200 200 203 206 208 209 212 215 219 218 215 212 211 211 212 213 217 220 223 226 229 231 233 234 234 235 239 244 247 250 255 259 265 271 275 279 284 289
187 188 193 197 198 195 194 198 204 212 219 218 214 213 209 208 211 212 215 221 220 214 210 209 209 208 207 206 204 201 202 206 212 212 205 200 202 204 206 207 206 205 205 204 203 201 200 200 199 199 203 205 206 208 210 214 220 217 208 204 206 208 208 211 216 219 220 225 227 228 232 234 235 238 241 244 246 250 255 260 266 271 275 279 284 288
190 190 192 195 199 198 196 201 207 212 219 220 220 219 212 209 211 209 211 219 220 215 210 209 209 209 209 209 207 205 207 214 220 219 208 200 202 207 209 209 207 204 203 201 200 199 197 197 198 199 200 201 203 207 208 211 214 209 202 203 206 207 209 214 219 219 219 224 227 230 236 239 240 242 243 244 248 253 260 265 269 272 274 277 281 284
191 192 193 194 201 203 201 205 209 211 218 222 224 225 221 218 218 215 216 220 218 215 212 209 210 212 211 210 209 210 215 220 223 220 210 203 206 209 209 209 207 204 201 199 199 198 195 196 197 199 200 201 202 205 207 208 207 202 201 204 207 210 215 217 218 218 222 228 232 236 239 238 239 241 241 245 252 258 262 266 269 271 272 276 280 283
193 196 198 197 203 207 206 209 212 214 220 222 223 228 229 225 218 213 217 221 218 220 220 212 211 213 210 208 211 215 219 222 222 217 210 206 209 212 210 208 206 204 202 199 197 196 195 197 198 199 200 201 200 201 203 204 204 202 203 206 210 214 217 216 216 221 227 231 232 234 234 233 236 240 243 249 255 258 261 263 265 267 272 277 281 282
197 200 200 199 205 211 210 211 215 219 223 221 221 227 227 222 216 213 217 221 221 224 223 212 209 211 208 208 215 220 222 221 214 208 206 206 209 212 211 207 203 202 200 197 195 195 196 198 199 199 199 200 198 197 199 199 200 200 203 207 211 215 218 218 220 224 226 227 227 228 230 233 237 242 247 251 253 254 257 260 263 268 272 274 275 275
199 201 201 201 207 213 214 213 215 223 226 220 218 222 219 216 218 218 221 223 222 224 221 211 208 210 208 208 215 218 216 212 205 202 204 206 207 208 208 205 201 200 198 196 195 195 196 198 199 198 198 198 197 197 197 196 197 199 202 206 210 215 217 218 219 222 223 224 226 226 229 233 238 242 245 246 246 247 250 254 261 267 268 266 265 265
199 200 201 204 205 209 215 215 215 223 226 218 214 221 222 217 219 221 224 225 221 220 219 212 208 208 207 208 212 211 206 203 201 202 204 205 204 205 205 203 201 199 197 195 195 195 195 195 196 196 196 197 198 198 196 194 196 199 202 205 209 213 214 214 215 218 219 221 222 224 227 231 234 236 237 237 239 242 245 251 258 261 260 258 259 263
199 198 199 204 206 207 212 217 218 222 223 215 210 219 222 219 221 223 224 223 220 219 219 215 210 208 206 205 204 202 200 200 200 201 203 204 205 204 204 203 201 198 196 195 195 194 193 192 193 194 196 197 197 196 196 195 196 199 203 206 209 211 211 212 213 215 216 217 219 220 224 227 229 230 232 234 238 241 242 246 252 253 254 255 257 264
202 201 198 202 207 206 207 214 217 216 215 211 208 213 218 219 223 225 219 217 218 217 215 213 210 207 204 201 200 200 200 201 202 202 202 204 206 206 205 204 201 197 196 196 196 194 192 191 192 193 195 196 196 195 197 198 199 202 205 208 210 210 210 211 212 214 215 216 217 219 222 224 224 227 231 235 238 238 239 243 246 247 249 251 254 261
203 203 200 201 205 207 210 216 216 211 215 222 219 216 215 215 220 222 216 213 213 211 210 209 207 204 202 202 203 204 204 203 202 203 203 203 205 206 205 203 200 197 197 197 196 194 192 192 192 193 194 195 196 197 199 202 205 207 209 211 211 210 210 211 212 214 215 215 217 218 218 219 222 228 235 239 241 244 246 246 244 243 246 252 257 262
205 206 204 202 203 208 214 219 216 211 215 223 225 225 222 215 215 218 216 214 211 206 204 205 203 202 202 203 203 203 203 203 201 202 203 202 202 203 202 200 198 198 198 197 196 194 194 194 194 194 194 196 198 199 201 206 210 212 212 212 211 211 211 212 212 213 213 213 214 215 215 218 225 231 237 241 244 246 246 241 235 236 244 253 258 261
211 215 212 207 207 209 210 211 210 208 208 211 213 218 221 218 217 218 216 212 208 205 204 203 202 201 202 203 201 199 202 204 201 199 201 201 201 201 199 197 197 197 196 196 195 195 196 195 194 194 195 197 200 201 204 209 212 213 212 212 212 211 211 211 211 211 211 212 212 214 217 222 226 228 230 233 235 235 233 229 227 230 240 252 257 258
210 214 215 210 209 212 212 212 213 214 218 223 219 216 219 220 217 218 219 214 205 204 205 204 205 207 206 204 203 201 201 203 201 198 199 200 200 199 198 196 196 196 195 195 195 196 196 196 195 196 198 200 202 205 208 211 213 213 213 212 212 211 211 211 211 211 211 211 212 214 219 223 224 224 223 222 221 220 220 222 227 233 243 256 263 264
203 209 213 207 204 209 214 217 217 215 219 227 223 217 220 222 219 219 223 221 213 210 209 207 208 212 210 206 204 202 199 200 200 199 199 200 200 199 198 196 196 196 195 194 195 196 196 197 197 198 199 201 203 206 208 210 212 212 212 211 212 212 212 211 211 211 211 211 213 217 220 222 222 221 221 219 216 213 213 221 236 245 250 259 267 271
209 208 208 203 205 211 215 219 222 219 218 222 222 219 220 222 220 221 225 225 218 214 213 210 209 209 208 206 205 202 198 198 199 199 200 202 202 200 199 198 197 196 195 194 195 196 197 197 198 198 199 200 203 206 208 209 210 211 211 212 213 213 212 211 210 210 211 213 215 218 220 220 221 222 223 223 220 216 215 222 238 253 260 265 272 278